Location: Asheville, NC
(35.6000°N, 82.5500°W)
Time: 00:15:28
(UTC-04:00)

UWE-3 - Pass Details

Date: 11 February 2018
Orbit: 587 x 683 km, 97.6° (Epoch: 21 May)

Event Time Altitude Azimuth Distance (km) Brightness Sun altitude
Rises 20:42:08 0° 217° (SW) 3,015 ? -31.8°
Reaches altitude 10° 20:46:02 10° 250° (WSW) 2,117 ? -32.6°
Maximum altitude 20:47:31 11° 269° (W) 2,028 ? -32.9°
Drops below altitude 10° 20:49:01 10° 288° (WNW) 2,125 ? -33.2°
Sets 20:52:58 0° 322° (NW) 3,046 ? -33.9°
